Weather in Songzi

China     30°10′33″N   111°47′07″E
temp.,
°C
wind,
m/s
gust,
m/s
humid.,
%
clouds,
%
prec.,
mm/h
press.,
hPa
HPBL,
m
5 march, fri
fri523:00+14ssw376791 0.0 1018203
02:00+13ssw127594 0.1 101790
05:00+11wsw229399 3.4 1016142
08:00+11nnw129499 5.9 1016179
11:00+12nnw2390100 0.3 1018275
14:00+12n2391100 1.1 1015323
17:00+12nne1285100 0.0 1015364
20:00+11n259196 0.0 1017223
6 march, sat
sat623:00+11n3892100 0.1 1020540
02:00+11n51090100 0.9 1021608
05:00+11n71386100 0.0 1021810
08:00+11n51286100 0.2 1024922
11:00+9nne81477100 0.1 1026699
14:00+8nne81279100 0.6 1026831
17:00+7nne61179100 0.5 1026747
20:00+6n51078100 0.5 1028706
7 march, sun
sun723:00+6n4108088 0.0 1030473
02:00+6n488181 0.0 1029442
05:00+6nne387999 0.0 1028428
08:00+6nne377399 0.0 1029428
11:00+9nne466698 0.0 1029546
14:00+13ne345769 0.0 10261170
17:00+13ne2358100 0.0 10241219
20:00+10ene227294 0.0 102624
8 march, mon
mon823:00+9ese018098 0.0 102722
02:00+8n128489 0.0 102533
05:00+8nnw128271 0.0 102486
08:00+8nnw238686 0.4 1025207
11:00+8nnw2487100 0.3 1026288
14:00+12n336891 0.3 1024831
17:00+11nne347296 0.0 1023522
20:00+9nne117985 0.0 102469
9 march, tue
tue923:00+8nw118174 0.0 102622
02:00+7nw118254 0.0 102522
05:00+7n22842 0.0 102427
08:00+8sw11823 0.0 102555
11:00+13ene216319 0.0 1026598
14:00+15n226053 0.0 1024892
17:00+13wnw227394 0.1 102277
20:00+12wnw227697 0.2 102367